www.pogodaiklimat.ru

Погода и климат >> Архив погоды >> Португалия >> Санта-Катарина


ПОГОДА в Санта-Катарине

  • Прогноз погоды в Санта-Катарине
  • Монитор погоды в Санта-Катарине

АРХИВ ПОГОДЫ в Санта-Катарине

Время (UTC), дата Ветер
(напр.,м/с)
 
Видим.   Явления Облачность Т
(С)
Тd
(С)
f
(%)
Тe
(С)
Тes
(С)
Комфортность P
(гПа)
Po
(гПа)
Тmin
(С)
Tmax
(С)
R
(мм)
R24
(мм)
S
(см)
21 16.01 С 4-8
{13}
20 км 6/6 450 м
[Cu Sc]
+16.1 +8.8 62 +15 +15 1024.3 1017.4
00 17.01 С 4-10
{10}
20 км 9/9 450 м
[Cu Sc]
+16.1 +8.0 59 +15 +15 1024.3 1017.4
03 17.01 С 5 20 км 4/4 450 м
[Cu Sc]
+15.0 +9.5 70 +14 +14 1023.4 1016.4
06 17.01 С 4 20 км 4/4 450 м
[Cu Sc]
+14.5 +7.6 63 +13 +13 1022.7 1015.7 +13.6
09 17.01 СВ 12
{22}
4000 м ливневой дождь 8/8 420 м
[Cu Sc]
+14.3 +11.6 84 +11 +11 1023.7 1016.7
12 17.01 СВ 12-19
{20}
20 км {ливн. осадки} 5/5 450 м
[Cu Sc]
+16.2 +6.2 51 +14 +14 1025.0 1018.0 3
15 17.01 СВ 9-14
{20}
20 км 5/5 450 м
[Cu Sc]
+16.7 +6.1 50 +15 +16 1023.4 1016.5
18 17.01 СВ 11
{17}
20 км 6/6 450 м
[Cu Sc]
+15.3 +8.4 63 +13 +13 1024.1 1017.1 +17.1 3
21 17.01 С 7-14
{15}
20 км 8/8 450 м
[Cu Sc]
+14.9 +7.4 61 +13 +13 1025.3 1018.4
00 18.01 С 4-9
{15}
15 км слаб. ливневой дождь 8/8 450 м
[Cu Sc]
+13.9 +9.4 74 +12 +12 1026.7 1019.6 2
03 18.01 С 7-12
{14}
20 км в посл. час ливневой дождь 9/9 450 м
[Cu Sc]
+13.4 +9.5 77 +11 +11 1026.1 1019.0
06 18.01 С 6 20 км в посл. час ливневой дождь 9/9 450 м
[Cu Sc]
+13.9 +9.2 73 +12 +12 1025.6 1018.6 +12.6 3
09 18.01 С 6-10
{14}
20 км 8/8 450 м
[Cu Sc]
+14.7 +8.6 67 +13 +13 1026.4 1019.4
12 18.01 С 5-12
{12}
20 км 6/6 450 м
[Cu Sc]
+16.6 +9.0 61 +16 +17 1028.0 1021.0 0.7
15 18.01 СВ 8-13
{13}
20 км 8/8 450 м
[Cu Sc]
+15.8 +9.6 67 +14 +14 1026.8 1019.8
18 18.01 С 6-11
{11}
20 км 8/8 450 м
[Cu Sc]
+15.7 +9.3 66 +14 +14 1027.1 1020.1 +17.3 0.7
21 18.01 С 5-8
{10}
20 км 8/8 450 м
[Cu Sc]
+15.8 +8.6 62 +15 +15 1028.1 1021.1
00 19.01 С 3-6
{7}
н/о н/о +14.5 +8.7 68 +14 +14 1029.1 1022.1
03 19.01 СЗ 3
{8}
20 км 5/5 450 м
[Cu Sc]
+13.9 +8.5 70 +13 +13 1028.7 1021.7
06 19.01 С 6
{9}
20 км 5/5 450 м
[Cu Sc]
+15.1 +8.9 66 +14 +14 1028.1 1021.1 +13.4
09 19.01 С 8 20 км 9/9 450 м
[Cu Sc]
+15.6 +8.9 64 +14 +14 1029.2 1022.2
12 19.01 С 7-11
{11}
20 км 9/9 450 м
[Cu Sc]
+17.4 +9.2 59 +16 +17 1029.8 1022.9
15 19.01 С 5-8
{8}
20 км 9/9 450 м
[Cu Sc]
+17.3 +10.2 63 +17 +17 1027.4 1020.5
18 19.01
{5}
20 км 6/6 450 м
[Cu Sc]
+17.1 +10.7 66 1027.2 1020.2 +18.3
21 19.01 СЗ 7-11
{15}
20 км 6/6 450 м
[Cu Sc]
+16.7 +8.1 57 +16 +16 1028.0 1021.0
00 20.01 З 4-6
{6}
н/о н/о +16.5 +10.0 65 +16 +16 1028.1 1021.2
03 20.01 СВ 3
{5}
20 км 8/8 450 м
[Cu Sc]
+16.0 +9.6 66 +16 +16 1026.7 1019.8
06 20.01 СВ 8 20 км слаб. ливневой дождь 9/9 450 м
[Cu Sc]
+16.4 +13.8 85 +15 +15 1025.2 1018.2 +14.7 1
09 20.01 С 6-10
{13}
20 км 8/8 450 м
[Cu Sc]
+16.2 +10.8 70 +15 +15 1026.9 1019.9
12 20.01 СВ 5-9
{11}
20 км 5/5 450 м
[Cu Sc]
+18.6 +10.2 58 +19 +21 1027.7 1020.8 0.5
15 20.01 СВ 5
{11}
6000 м дождь 8/8 450 м
[Cu Sc Ci fib]
+16.7 +14.0 84 +16 +16 1026.4 1019.5
18 20.01 В 14 9000 м слаб. дождь 8/8 420 м
[Cu Sc]
+15.3 +11.7 79 +12 +12 1026.7 1019.7 +18.9 4
21 20.01 СВ 12
{21}
15 км 8/8 450 м
[Cu Sc]
+16.1 +8.0 59 +14 +14 1027.6 1020.6
00 21.01 СВ 7-12
{13}
15 км 8/8 450 м
[Cu Sc]
+16.2 +7.3 56 +15 +15 1028.8 1021.8 0.2
03 21.01 С 6-9
{15}
20 км 6/6 450 м
[Cu Sc]
+15.1 +8.6 65 +14 +14 1028.1 1021.1
06 21.01 20 км н/о +15.7 +6.1 53 +14 +14 1027.3 1020.3 +15.0 0.2
09 21.01 С 6-11
{17}
20 км 8/8 450 м
[Cu Sc]
+14.5 +8.0 65 +13 +13 1028.3 1021.3
12 21.01 СВ 7-10
{17}
20 км 8/8 480 м
[Cu Sc]
+17.3 +6.2 48 +16 +17 1029.2 1022.2 0.8
15 21.01 СВ 8-11
{12}
15 км слаб. ливневой дождь 9/9 450 м
[Cu Sc]
+14.0 +10.8 81 +12 +12 1028.0 1021.0
18 21.01 С 6-12
{12}
10 км в посл. час ливневой дождь 6/6 450 м
[Cu Sc]
+14.7 +9.9 73 +13 +13 1027.8 1020.8 +17.8 2
21 21.01 С 5-7
{12}
20 км 8/8 450 м
[Cu Sc]
+14.9 +8.3 65 +14 +14 1028.6 1021.6
00 22.01 С 5-7
{11}
н/о н/о +15.1 +7.8 62 +14 +14 1028.8 1021.8
03 22.01 СВ 6
{10}
20 км 9/9 450 м
[Cu Sc]
+15.4 +6.4 55 +14 +14 1028.3 1021.3
06 22.01 С 5-9
{11}
н/о н/о +14.9 +4.4 49 +14 +14 1028.1 1021.1 +14.3
09 22.01 С 5
{9}
20 км 9/9 450 м
[Cu Sc]
+15.2 +6.2 55 +14 +14 1029.5 1022.5
12 22.01 В 5-7
{8}
н/о н/о +17.5 +6.8 49 +17 +17 1030.3 1023.3
15 22.01 СВ 4
{8}
20 км 9/9 540 м
[Cu Sc]
+17.5 +6.9 50 +17 +18 1029.2 1022.2
18 22.01 С 5
{8}
20 км 9/9 480 м
[Cu Sc]
+16.0 +7.3 56 +15 +15 1028.9 1021.9 +17.6
21 22.01 СВ 6-10
{10}
20 км 8/8 480 м
[Cu Sc]
+15.2 +6.2 55 +14 +14 1029.8 1022.8
00 23.01 С 5-9
{12}
20 км 8/8 480 м
[Cu Sc]
+15.1 +6.3 56 +14 +14 1030.1 1023.1
03 23.01 СВ 7 20 км 6/6 480 м
[Cu Sc]
+15.1 +7.3 60 +13 +13 1029.5 1022.5
06 23.01 С 4 20 км 6/6 480 м
[Cu Sc]
+15.0 +8.1 63 +14 +14 1028.5 1021.5 +14.8
09 23.01 С 6-11
{11}
20 км 8/8 400 м
[Cu Sc]
+14.5 +10.2 75 +13 +13 1028.9 1021.8
12 23.01 С 7
{11}
20 км 8/6 450 м
[Cu Sc Ci fib]
+16.1 +10.4 69 +15 +15 1029.2 1022.2
15 23.01 СВ 8 20 км слаб. ливневой дождь 9/9 450 м
[Cu Sc]
+16.1 +12.0 77 +14 +15 1027.2 1020.2
18 23.01 С 4-8
{10}
20 км 6/6 450 м
[Cu Sc Ci fib]
+16.1 +10.1 68 +15 +15 1025.8 1018.8 +17.4 0.1

 

Местоположение метеостанции Санта-Катарина (Португалия): широта 32.68 долгота -16.76 высота над уровнем моря 49 м.

В архиве по умолчанию представлена погода в Санта-Катарине за последнюю неделю. Архивные данные за месяц целиком и за предыдущие месяцы, начиная с января 2011 года, Вы можете получить, выбрав интересующий диапазон дат из раскрывающегося списка и нажав кнопку "Ввод!".


*Определитесь, кто Вы:
робот инопланетянин человек

Внимание! Время в таблицах - всемирное. Для получения местного времени необходимо прибавить поправку, которая равна 0 ч.

Смотрите также архив погоды в соседних городах и на ближайших метеорологических станциях:

Погода в Финшале (Португалия) (14 км)
Погода на Порту-Санту (Португалия) (58 км)
Погода на Пальме (Канарские Острова) (461 км)
Погода на Тенерифе (Канарские Острова) (470 км)
Погода в Санта-Круз-де-Тенерифе (Канарские Острова) (473 км)
Погода в Тенерифе-Гуимаре (Канарские Острова) (486 км)
Погода в Обсерватории Izana (Канарские Острова) (488 км)
Погода в Аэропорту Лансароте (Канарские Острова) (513 км)
Погода в Аэропорту Рейна-София (Канарские Острова) (515 км)
Погода на Гомере (Канарские Острова) (519 км)

Пояснения к столбцам:

Ветер - указаны скорость ветра в м/с - средняя за 10 мин, порывы в срок и между сроками (в фигурных скобках) и направление, откуда дует ветер: С - северный, СВ - северо-восточный, В - восточный, ЮВ - юго-восточный, Ю - южный, ЮЗ - юго-западный, З - западный, СЗ - северо-западный.
Видимость - горизонтальная дальность видимости в метрах или километрах. При видимости от 1 до 10 км при отсутствии осадков обычно наблюдается дымка, при ухудшении видимости до 1 км и менее - туман. В сухую погоду видимость может ухудшаться дымом, пылью или мглою.
Явления - указаны атмосферные явления, наблюдавшиеся в срок или в последний час перед сроком; фигурными скобками обозначены явления, наблюдавшиеся между сроками (за 1-3 часа до срока); квадратными скобками обозначены град или гололедные отложения с указанием их диаметра в мм.
Облачность - указаны через наклонную черту общая и нижняя облачность в баллах и высота нижней границы облаков в метрах; квадратными скобками обозначены формы облаков: Ci - перистые, Cs - перисто-слоистые, Cc - перисто-кучевые, Ac - высококучевые, As - высокослоистые, Sc - слоисто-кучевые, Ns - слоисто-дождевые, Cu - кучевые, Cb - кучево-дождевые. Подробнее классификацию облаков см. в Атласе облаков (PDF).
T - Температура воздуха - температура, измеренная на высоте 2 м над землей.
Td - Температура точки росы - температура, при понижении до которой содержащийся в воздухе водяной пар достигнет насыщения.
f - Относительная влажность воздуха - влажноcть воздуха, измеренная на высоте 2 м над землей.
Te - Эффективная температура - температура, которую ощущает одетый по сезону человек в тени. Характеристика душности погоды. При расчете учитывается влияние влажности воздуха и скорости ветра на теплоощущения человека.
Tes - Эффективная температура на солнце - температура, которую ощущает человек, с поправкой на солнечный нагрев. Характеристика знойности погоды. Зависит от высоты солнца над горизонтом, облачности и скорости ветра. Ночью, в пасмурную погоду, а также при ветре 12 м/с и более поправка равна нулю.
P - Атмосферное давление - приведенное к уровню моря атмосферное давление.
Po - Атмосферное давление - измеренное на уровне метеостанции атмосферное давление.
Tmin - Минимальная температура - минимум температуры воздуха на высоте 2 м над землей.
Tmax - Максимальная температура - максимум температуры воздуха на высоте 2 м над землей.
R - Количество осадков - Количество выпавших осадков за период времени, мм. При наведении курсора мыши на число - период времени, за который выпало указанное количество осадков.
R24 - Количество осадков - Количество выпавших осадков за 24 часа, мм.
S - Снежный покров - Высота снежного покрова, см. При наведении курсора мыши на число - состояние снежного покрова и степень покрытия местности в баллах.